Location: Castiglione Fibocchi
(43.5333°N, 11.7667°E)
Time: 14:27:26
(UTC+00:00)

Cosmos 2263 Rocket - Pass Details

Date: 15 August 2020
Orbit: 823 x 848 km, 71.0° (Epoch: 24 September)

Event Time Altitude Azimuth Distance (km) Brightness Sun altitude
Exits shadow 00:15:20 28° 90° (E) 1,520 3.6 -31.0°
Drops below altitude 10° 00:19:18 10° 46° (NE) 2,429 5.3 -30.8°
Sets 00:22:02 0° 35° (NE) 3,367 6.4 -30.6°
